Weather History for LHSN - April, 2013

Change the Weather History Date:

Thursday, April 18, 2013

  Actual Average (LHBP) Record (LHBP)
Temperature  
Mean Temperature 56 °F -  
Max Temperature 71 °F 59 °F 73 °F (2013)
Min Temperature 42 °F 40 °F 32 °F (1999)
Degree Days  
Heating Degree Days 8    
Growing Degree Days 6 (Base 50)    
Moisture  
Dew Point 42 °F    
Average Humidity 59    
Maximum Humidity 93    
Minimum Humidity 29    
Precipitation  
Precipitation 0.00 in - - ()
Sea Level Pressure  
Sea Level Pressure 30.14 in    
Wind  
Wind Speed 2 mph ()    
Max Wind Speed 4 mph    
Max Gust Speed -    
Visibility 5.0 miles    
Events Fog    
Averages and records for this station are not official NWS values.
T = Trace of Precipitation, MM = Missing Value Source: Averaged Metar Reports

Daily Weather History Graph

Daily Weather History Graph

Search for Another Location

Airport or City:

Trip Planner

Search our weather history database for the weather conditions in past years. The results will help you decide how hot, cold, wet, or windy it might be!

Date:

Astronomy

Apr. 18, 2013 Rise Set
Actual Time 5:45 AM CEST 7:32 PM CEST
Civil Twilight 5:13 AM CEST 8:04 PM CEST
Nautical Twilight 4:33 AM CEST 8:44 PM CEST
Astronomical Twilight 3:50 AM CEST 9:27 PM CEST
Moon 11:34 AM CEST (4/18) 1:42 AM CEST (4/18)
Length of Visible Light 14h 51m
Length of Day
13h 46m
Waxing Crescent, 49% of the Moon is Illuminated
Apr 18
Waxing Crescent
Apr 18
First Quarter
Apr 25
Full
May 2
Last Quarter
May 10
New

Hourly Weather History & Observations

Time (CEST) Temp. Windchill Dew Point Humidity Pressure Visibility Wind Dir Wind Speed Gust Speed Precip Events Conditions
12:15 AM 50.0 °F - 41.0 °F 71% 30.18 in - WNW 2.2 mph - N/A   Clear
12:45 AM 48.2 °F - 41.0 °F 76% 30.18 in - Calm Calm - N/A   Clear
1:15 AM 48.2 °F - 41.0 °F 76% 30.18 in - South 2.2 mph - N/A   Clear
1:45 AM 46.4 °F - 41.0 °F 81% 30.21 in - SW 2.2 mph - N/A   Clear
2:15 AM 46.4 °F - 41.0 °F 81% 30.18 in - Calm Calm - N/A   Clear
2:45 AM 46.4 °F - 41.0 °F 81% 30.18 in - West 2.2 mph - N/A   Clear
3:15 AM 46.4 °F - 42.8 °F 87% 30.18 in - West 2.2 mph - N/A   Clear
3:45 AM - - - N/A% - 6.2 mi Variable 4.5 mph - N/A   Clear
4:15 AM 44.6 °F 42.3 °F 42.8 °F 93% 30.18 in - WNW 4.5 mph - N/A   Clear
4:45 AM 42.8 °F - 41.0 °F 93% 30.18 in - NW 2.2 mph - N/A   Clear
5:15 AM 42.8 °F - 41.0 °F 93% 30.18 in - Calm Calm - N/A   Clear
5:45 AM 42.8 °F - 41.0 °F 93% 30.18 in - Calm Calm - N/A   Clear
6:15 AM 44.6 °F 42.3 °F 42.8 °F 93% 30.18 in 6.2 mi West 4.5 mph - N/A Fog Shallow Fog
6:45 AM 46.4 °F - 44.6 °F 93% 30.18 in 6.2 mi WNW 2.2 mph - N/A   Partly Cloudy
7:15 AM 50.0 °F - 46.4 °F 87% 30.18 in - NW 2.2 mph - N/A   Clear
7:45 AM 51.8 °F - 44.6 °F 76% 30.18 in - NW 2.2 mph - N/A   Clear
8:15 AM 55.4 °F - 46.4 °F 72% 30.18 in - Calm Calm - N/A   Clear
8:45 AM 57.2 °F - 48.2 °F 72% 30.18 in - North 2.2 mph - N/A   Clear
9:15 AM 60.8 °F - 50.0 °F 68% 30.18 in - Calm Calm - N/A   Clear
9:45 AM 62.6 °F - 50.0 °F 63% 30.18 in - Calm Calm - N/A   Clear
10:15 AM 64.4 °F - 46.4 °F 52% 30.18 in - Calm Calm - N/A   Clear
10:45 AM 64.4 °F - 41.0 °F 42% 30.18 in - WSW 2.2 mph - N/A   Clear
11:15 AM 66.2 °F - 42.8 °F 43% 30.18 in - WSW 2.2 mph - N/A   Clear
11:45 AM 68.0 °F - 41.0 °F 37% 30.15 in - SW 2.2 mph - N/A   Clear
12:15 PM 68.0 °F - 41.0 °F 37% 30.15 in - Variable 2.2 mph - N/A   Clear
12:45 PM 69.8 °F - 37.4 °F 31% 30.15 in - South 2.2 mph - N/A   Clear
1:15 PM 69.8 °F - 37.4 °F 31% 30.12 in - ESE 2.2 mph - N/A   Clear
1:45 PM 71.6 °F - 44.6 °F 38% 30.12 in - Calm Calm - N/A   Clear
2:15 PM 71.6 °F - 37.4 °F 29% 30.12 in - ENE 4.5 mph - N/A   Clear
2:45 PM 71.6 °F - 39.2 °F 31% 30.12 in - ENE 4.5 mph - N/A   Clear
3:15 PM 71.6 °F - 41.0 °F 33% 30.09 in - East 2.2 mph - N/A   Clear
3:45 PM 71.6 °F - 39.2 °F 31% 30.09 in - Variable 2.2 mph - N/A   Clear
4:15 PM 71.6 °F - 42.8 °F 35% 30.09 in - East 2.2 mph - N/A   Clear
4:45 PM 71.6 °F - 41.0 °F 33% 30.09 in - East 2.2 mph - N/A   Clear
5:15 PM 71.6 °F - 39.2 °F 31% 30.09 in - ENE 2.2 mph - N/A   Clear
5:45 PM 71.6 °F - 44.6 °F 38% 30.06 in - ENE 2.2 mph - N/A   Clear
6:15 PM 69.8 °F - 42.8 °F 38% 30.06 in - East 2.2 mph - N/A   Clear
6:45 PM - - - N/A% - 1.2 mi Variable 4.5 mph - N/A   Clear
7:15 PM 68.0 °F - 42.8 °F 40% 30.06 in - East 2.2 mph - N/A   Clear
7:45 PM 68.0 °F - 41.0 °F 37% 30.06 in - East 2.2 mph - N/A   Clear
8:15 PM 62.6 °F - 41.0 °F 45% 30.09 in - ESE 4.5 mph - N/A   Clear
8:45 PM 60.8 °F - 42.8 °F 52% 30.09 in - ESE 4.5 mph - N/A   Clear
9:15 PM 59.0 °F - 42.8 °F 55% 30.09 in - SSE 2.2 mph - N/A   Clear
9:45 PM - - - N/A% - - Variable 4.5 mph - N/A   Clear
10:15 PM 57.2 °F - 42.8 °F 59% 30.09 in - Calm Calm - N/A   Clear
10:45 PM 55.4 °F - 42.8 °F 63% 30.06 in - Calm Calm - N/A   Clear
11:15 PM 53.6 °F - 44.6 °F 72% 30.09 in - Calm Calm - N/A   Clear
11:45 PM 51.8 °F - 44.6 °F 76% 30.09 in - Calm Calm - N/A   Clear